Weather History for KMLB - July, 2013

Change the Weather History Date:

Saturday, July 6, 2013

  Actual Average Record
Temperature  
Mean Temperature 83 °F 81 °F  
Max Temperature 88 °F 90 °F 99 °F (1966)
Min Temperature 78 °F 72 °F 69 °F (1976)
Degree Days  
Heating Degree Days 0 0  
Month to date heating degree days 0 0  
Since 1 June heating degree days 0 0  
Since 1 July heating degree days 0 0  
Cooling Degree Days 18 16  
Month to date cooling degree days 103 96  
Year to date cooling degree days 1462 1284  
Since 1 June cooling degree days 601 558  
Growing Degree Days 34 (Base 50)    
Moisture  
Dew Point 73 °F    
Average Humidity 72    
Maximum Humidity 85    
Minimum Humidity 59    
Precipitation  
Precipitation 0.00 in 0.20 in 2.39 in (2006)
Month to date precipitation 0.48 1.18  
Year to date precipitation 22.55 21.39  
Sea Level Pressure  
Sea Level Pressure 30.11 in    
Wind  
Wind Speed 10 mph (ESE)    
Max Wind Speed 20 mph    
Max Gust Speed 24 mph    
Visibility 10 miles    
Events      
T = Trace of Precipitation, MM = Missing Value Source: NWS Daily Summary

Daily Weather History Graph

Daily Weather History Graph

Search for Another Location

Airport or City:

Trip Planner

Search our weather history database for the weather conditions in past years. The results will help you decide how hot, cold, wet, or windy it might be!

Date:

Astronomy

Jul. 06, 2013 Rise Set
Actual Time 6:31 AM EDT 8:22 PM EDT
Civil Twilight 6:05 AM EDT 8:49 PM EDT
Nautical Twilight 5:33 AM EDT 9:21 PM EDT
Astronomical Twilight 4:59 AM EDT 9:55 PM EDT
Moon 5:12 AM EDT (7/6) 7:07 PM EDT (7/6)
Length of Visible Light 14h 44m
Length of Day
13h 51m
Waning Crescent, 2% of the Moon is Illuminated
Jul 6
Waning Crescent
Jul 8
New
Jul 15
First Quarter
Jul 22
Full
Jul 29
Last Quarter

Hourly Weather History & Observations

Time (EDT) Temp. Heat Index Dew Point Humidity Pressure Visibility Wind Dir Wind Speed Gust Speed Precip Events Conditions
12:53 AM 81.0 °F 85.8 °F 73.0 °F 77% 30.14 in 10.0 mi SE 6.9 mph - N/A   Overcast
1:53 AM 80.1 °F 83.6 °F 71.1 °F 74% 30.13 in 10.0 mi SSE 6.9 mph - N/A   Clear
2:53 AM 80.1 °F 83.8 °F 72.0 °F 76% 30.10 in 10.0 mi SE 5.8 mph - N/A   Clear
3:53 AM 79.0 °F - 73.0 °F 82% 30.09 in 10.0 mi ESE 5.8 mph - N/A   Clear
4:53 AM 80.1 °F 84.2 °F 73.0 °F 79% 30.09 in 10.0 mi ESE 8.1 mph - N/A   Clear
5:53 AM 79.0 °F - 73.0 °F 82% 30.09 in 10.0 mi East 10.4 mph - N/A   Clear
6:53 AM 79.0 °F - 73.0 °F 82% 30.09 in 10.0 mi East 8.1 mph - N/A   Clear
7:53 AM 81.0 °F 85.8 °F 73.0 °F 77% 30.11 in 10.0 mi East 6.9 mph - N/A   Partly Cloudy
8:53 AM 82.9 °F 89.4 °F 73.9 °F 74% 30.12 in 10.0 mi ESE 8.1 mph - N/A   Partly Cloudy
9:53 AM 84.9 °F 91.4 °F 73.0 °F 67% 30.13 in 10.0 mi ESE 12.7 mph - N/A   Clear
10:53 AM 86.0 °F 93.0 °F 73.0 °F 65% 30.14 in 10.0 mi ESE 12.7 mph - N/A   Scattered Clouds
11:53 AM 87.1 °F 93.6 °F 72.0 °F 61% 30.14 in 10.0 mi ESE 15.0 mph - N/A   Scattered Clouds
12:53 PM 86.0 °F 92.2 °F 72.0 °F 63% 30.14 in 10.0 mi ESE 13.8 mph - N/A   Scattered Clouds
1:53 PM 88.0 °F 95.6 °F 73.0 °F 61% 30.13 in 10.0 mi ESE 11.5 mph 19.6 mph N/A   Scattered Clouds
2:53 PM 88.0 °F 95.6 °F 73.0 °F 61% 30.12 in 10.0 mi ESE 13.8 mph - N/A   Scattered Clouds
3:53 PM 86.0 °F 93.0 °F 73.0 °F 65% 30.10 in 10.0 mi ESE 12.7 mph - N/A   Scattered Clouds
4:53 PM 86.0 °F 93.0 °F 73.0 °F 65% 30.09 in 10.0 mi ESE 11.5 mph 21.9 mph N/A   Clear
5:53 PM 84.9 °F 91.4 °F 73.0 °F 67% 30.08 in 10.0 mi ESE 17.3 mph 21.9 mph N/A   Scattered Clouds
6:53 PM 84.0 °F 89.6 °F 72.0 °F 67% 30.09 in 10.0 mi ESE 9.2 mph - N/A   Partly Cloudy
7:53 PM 82.9 °F 88.8 °F 73.0 °F 72% 30.08 in 10.0 mi ESE 12.7 mph - N/A   Clear
8:53 PM 82.0 °F 87.4 °F 73.0 °F 74% 30.10 in 10.0 mi ESE 11.5 mph - N/A   Clear
9:53 PM 82.0 °F 87.4 °F 73.0 °F 74% 30.12 in 10.0 mi ESE 8.1 mph - N/A   Clear
10:53 PM 82.0 °F 87.4 °F 73.0 °F 74% 30.13 in 10.0 mi SE 6.9 mph - N/A   Clear
11:53 PM 82.0 °F 87.9 °F 73.9 °F 76% 30.14 in 10.0 mi ESE 4.6 mph - N/A   Scattered Clouds